Laramie, WY

8:11 AM MST on February 26, 2017 (GMT -0700)
Laramie Regional

Weather History for KLAR - September, 2013

Change the Weather History Date:

Thursday, September 19, 2013

  Actual Average Record
Temperature  
Mean Temperature 48 °F 52 °F  
Max Temperature 61 °F 67 °F 86 °F (2010)
Min Temperature 35 °F 37 °F 18 °F (1971)
Degree Days  
Heating Degree Days 17 13  
Month to date heating degree days 97 181  
Since 1 July heating degree days 168 353  
Cooling Degree Days 0 0  
Month to date cooling degree days 24 0  
Year to date cooling degree days 162 66  
Moisture  
Dew Point 27 °F    
Average Humidity 45    
Maximum Humidity 73    
Minimum Humidity 17    
Precipitation  
Precipitation 0.00 in 0.04 in 0.92 in (1997)
Month to date precipitation 2.74 0.72  
Year to date precipitation 9.07 8.87  
Sea Level Pressure  
Sea Level Pressure 29.98 in    
Wind  
Wind Speed 7 mph (NNE)    
Max Wind Speed 20 mph    
Max Gust Speed 23 mph    
Visibility 10 miles    
Events      
T = Trace of Precipitation, MM = Missing Value Source: NWS Daily Summary

Daily Weather History Graph

Daily Weather History Graph

Search for Another Location

Airport or City:

Trip Planner

Search our weather history database for the weather conditions in past years. The results will help you decide how hot, cold, wet, or windy it might be!

Date:

Astronomy

Sep. 19, 2013 Rise Set
Actual Time 6:47 AM MDT 7:04 PM MDT
Civil Twilight 6:19 AM MDT 7:32 PM MDT
Nautical Twilight 5:47 AM MDT 8:04 PM MDT
Astronomical Twilight 5:14 AM MDT 8:37 PM MDT
Moon 7:03 PM MDT (9/19) 7:00 AM MDT (9/19)
Length of Visible Light 13h 12m
Length of Day
12h 17m
Full, 100% of the Moon is Illuminated
Sep 19
Full
Sep 26
Last Quarter
Oct 4
New
Oct 11
First Quarter
Oct 18
Full

Hourly Weather History & Observations

Time (MDT) Temp. Windchill Dew Point Humidity Pressure Visibility Wind Dir Wind Speed Gust Speed Precip Events Conditions
12:53 AM 46.0 °F 43.1 °F 32.0 °F 58% 29.84 in 10.0 mi WSW 5.8 mph - N/A   Partly Cloudy
1:53 AM 44.1 °F - 32.0 °F 63% 29.85 in 10.0 mi Calm Calm - N/A   Clear
2:53 AM 44.1 °F 41.5 °F 30.9 °F 60% 29.86 in 10.0 mi NE 4.6 mph - N/A   Partly Cloudy
3:53 AM 41.0 °F 37.1 °F 33.1 °F 73% 29.86 in 10.0 mi East 5.8 mph - N/A   Clear
4:53 AM 44.1 °F 40.8 °F 30.9 °F 60% 29.86 in 10.0 mi NNE 5.8 mph - N/A   Mostly Cloudy
5:53 AM 42.1 °F 40.2 °F 34.0 °F 73% 29.88 in 10.0 mi ENE 3.5 mph - N/A   Mostly Cloudy
6:53 AM 43.0 °F 39.5 °F 33.1 °F 68% 29.91 in 10.0 mi East 5.8 mph - N/A   Overcast
7:53 AM 43.0 °F 38.8 °F 33.1 °F 68% 29.97 in 10.0 mi NE 6.9 mph - N/A   Overcast
8:53 AM 45.0 °F 40.1 °F 30.0 °F 56% 29.99 in 10.0 mi North 9.2 mph - N/A   Mostly Cloudy
9:53 AM 48.9 °F - 30.0 °F 48% 30.00 in 10.0 mi North 13.8 mph - N/A   Clear
10:53 AM 52.0 °F - 30.9 °F 45% 29.98 in 10.0 mi NW 6.9 mph - N/A   Clear
11:53 AM 52.0 °F - 30.9 °F 45% 29.99 in 10.0 mi Calm Calm - N/A   Clear
12:53 PM 55.0 °F - 30.9 °F 40% 30.00 in 10.0 mi Variable 4.6 mph - N/A   Clear
1:53 PM 57.0 °F - 30.0 °F 36% 29.99 in 10.0 mi Variable 6.9 mph - N/A   Clear
2:53 PM 57.9 °F - 26.1 °F 30% 29.98 in 10.0 mi Variable 6.9 mph - N/A   Clear
3:53 PM 60.1 °F - 18.0 °F 20% 29.98 in 10.0 mi North 10.4 mph 18.4 mph N/A   Mostly Cloudy
4:53 PM 57.9 °F - 14.0 °F 18% 29.98 in 10.0 mi NNW 18.4 mph - N/A   Clear
5:53 PM 57.0 °F - 12.9 °F 18% 29.99 in 10.0 mi NNW 16.1 mph 23.0 mph N/A   Clear
6:53 PM 53.1 °F - 17.1 °F 24% 30.04 in 10.0 mi North 9.2 mph - N/A   Clear
7:53 PM 48.0 °F - 21.0 °F 34% 30.08 in 10.0 mi North 6.9 mph - N/A   Clear
8:53 PM 46.9 °F - 23.0 °F 39% 30.10 in 10.0 mi NNE 4.6 mph - N/A   Clear
9:53 PM 42.1 °F 40.2 °F 26.1 °F 53% 30.12 in 10.0 mi South 3.5 mph - N/A   Clear
10:53 PM 39.9 °F 35.8 °F 25.0 °F 55% 30.12 in 10.0 mi South 5.8 mph - N/A   Clear
11:53 PM 35.1 °F 29.3 °F 26.1 °F 70% 30.13 in 10.0 mi SW 6.9 mph - N/A   Clear